Stations météo

Publicité
Kinlochewe, Grande-Bretagne (99092): Température de l'air & dewpoint: 11.06.2019 15:00:00 - 17.06.2019 15:00:00 (BST)Kinlochewe, Grande-Bretagne (99092): Température de l'air -20cm: 11.06.2019 15:00:00 - 17.06.2019 15:00:00 (BST)Kinlochewe, Grande-Bretagne (99092): Quantités de précipitations: 11.06.2019 15:00:00 - 17.06.2019 15:00:00 (BST)
Date & Time tt [°C] td [°C] tt -20cm [°C] rr [mm]
17.06.2019 15:00:00 12,5 10,9 - 0,8
17.06.2019 14:00:00 - - - -
17.06.2019 13:00:00 - - - -
17.06.2019 12:00:00 - - - -
17.06.2019 11:00:00 13,1 9,9 - 0,4
17.06.2019 10:00:00 12,2 9,9 12,0 0,4
17.06.2019 09:00:00 11,0 10,3 - 0,2
17.06.2019 08:00:00 10,8 10,1 - 0,2
17.06.2019 07:00:00 9,8 9,5 - 0,2
17.06.2019 06:00:00 9,3 9,2 - 0,2
17.06.2019 05:00:00 9,0 8,8 - 0,2
17.06.2019 04:00:00 8,7 8,6 - 0,4
17.06.2019 03:00:00 8,5 8,2 - 0,8
17.06.2019 02:00:00 8,6 7,4 - 0,0
17.06.2019 01:00:00 8,7 6,8 - 0,0
17.06.2019 00:00:00 8,8 7,1 - 0,0
16.06.2019 23:00:00 9,7 7,5 - 0,0
16.06.2019 22:00:00 9,8 7,3 - 0,0
16.06.2019 21:00:00 12,2 7,3 - 0,0
16.06.2019 20:00:00 13,5 8,1 - 0,0
16.06.2019 19:00:00 13,0 7,8 - 0,0
16.06.2019 18:00:00 11,9 9,0 - 0,2
16.06.2019 17:00:00 12,3 9,4 - 0,2
16.06.2019 16:00:00 16,4 6,2 - 0,0
16.06.2019 15:00:00 16,9 5,5 - 0,0
16.06.2019 14:00:00 15,3 7,0 - 0,0
16.06.2019 13:00:00 14,0 8,0 - 0,0
16.06.2019 12:00:00 12,6 9,0 - 0,2
16.06.2019 11:00:00 12,8 8,3 - 0,0
16.06.2019 10:00:00 12,5 8,8 12,0 0,0
16.06.2019 09:00:00 11,6 7,8 - 0,0
16.06.2019 08:00:00 11,6 8,1 - 0,0
16.06.2019 07:00:00 10,6 9,4 - 0,2
16.06.2019 06:00:00 10,0 9,5 - 0,0
16.06.2019 05:00:00 9,4 8,8 - 0,0
16.06.2019 04:00:00 10,5 9,5 - 0,0
16.06.2019 03:00:00 10,7 10,3 - 0,2
16.06.2019 02:00:00 10,5 10,3 - 0,0
16.06.2019 01:00:00 10,3 10,2 - 0,0
16.06.2019 00:00:00 10,4 10,3 - 0,0
15.06.2019 23:00:00 11,0 10,5 - 0,2
15.06.2019 22:00:00 12,3 10,6 - 0,0
15.06.2019 21:00:00 13,4 10,4 - 0,0
15.06.2019 20:00:00 14,4 11,7 - 0,2
15.06.2019 19:00:00 15,6 11,4 - 0,0
15.06.2019 18:00:00 15,0 10,5 - 0,0
15.06.2019 17:00:00 15,1 11,0 - 0,0
15.06.2019 16:00:00 14,3 11,5 - 0,2
15.06.2019 15:00:00 15,6 9,0 - 0,0
15.06.2019 14:00:00 16,8 9,0 - 0,0
15.06.2019 13:00:00 16,5 9,6 - 0,0
15.06.2019 12:00:00 16,0 9,8 - 0,0
15.06.2019 11:00:00 15,2 9,4 - 0,0
15.06.2019 10:00:00 14,5 8,7 12,0 0,0
15.06.2019 09:00:00 13,9 8,1 - 0,0
15.06.2019 08:00:00 13,2 7,6 - 0,0
15.06.2019 07:00:00 12,2 7,4 - 0,0
15.06.2019 06:00:00 11,8 7,1 - 0,0
15.06.2019 05:00:00 11,6 7,0 - 0,0
15.06.2019 04:00:00 11,9 6,9 - 0,0
15.06.2019 03:00:00 10,8 6,7 - 0,0
15.06.2019 02:00:00 11,2 6,3 - 0,0
15.06.2019 01:00:00 11,3 5,9 - 0,0
15.06.2019 00:00:00 9,0 6,4 - 0,0
14.06.2019 23:00:00 8,6 6,2 - 0,0
14.06.2019 22:00:00 11,0 5,9 - 0,0
14.06.2019 21:00:00 14,2 4,8 - 0,0
14.06.2019 20:00:00 15,3 4,2 - 0,0
14.06.2019 19:00:00 15,3 4,9 - 0,0
14.06.2019 18:00:00 15,0 5,4 - 0,0
14.06.2019 17:00:00 14,6 8,0 - 0,0
14.06.2019 16:00:00 13,4 7,0 - 0,2
14.06.2019 15:00:00 16,3 6,1 - 0,0
14.06.2019 14:00:00 15,7 6,2 - 0,0
14.06.2019 13:00:00 14,6 7,6 - 0,0
14.06.2019 12:00:00 13,2 7,9 - 0,0
14.06.2019 11:00:00 13,5 5,9 - 0,0
14.06.2019 10:00:00 11,5 7,5 11,7 0,0
14.06.2019 09:00:00 10,3 8,5 - 0,0
14.06.2019 08:00:00 9,9 8,8 - 0,0
14.06.2019 07:00:00 8,9 8,7 - 0,0
14.06.2019 06:00:00 8,4 8,2 - 0,0
14.06.2019 05:00:00 8,1 7,9 - 0,2
14.06.2019 04:00:00 8,2 8,0 - 1,2
14.06.2019 03:00:00 8,4 8,1 - 1,0
14.06.2019 02:00:00 8,5 8,1 - 0,6
14.06.2019 01:00:00 8,6 8,2 - 0,4
14.06.2019 00:00:00 8,9 8,0 - 0,2
13.06.2019 23:00:00 9,3 8,3 - 0,0
13.06.2019 22:00:00 9,1 8,5 - 0,0
13.06.2019 21:00:00 9,1 8,7 - 0,0
13.06.2019 20:00:00 8,9 8,2 - 0,0
13.06.2019 19:00:00 9,0 7,7 - 0,0
13.06.2019 18:00:00 9,3 6,8 - 0,0
13.06.2019 17:00:00 9,2 6,9 - 0,0
13.06.2019 16:00:00 9,7 7,5 - 0,4
13.06.2019 15:00:00 9,6 7,2 - 0,4
13.06.2019 14:00:00 10,9 6,5 - 0,0
13.06.2019 13:00:00 10,5 6,2 - 0,0
13.06.2019 12:00:00 10,6 5,3 - 0,0
13.06.2019 11:00:00 9,6 4,3 - 0,0
13.06.2019 10:00:00 9,3 4,1 11,9 0,0
13.06.2019 09:00:00 9,4 3,5 - 0,0
13.06.2019 08:00:00 8,8 4,6 - 0,0
13.06.2019 07:00:00 8,3 4,8 - 0,0
13.06.2019 06:00:00 8,1 3,7 - 0,0
13.06.2019 05:00:00 7,6 3,3 - 0,0
13.06.2019 04:00:00 7,4 3,4 - 0,0
13.06.2019 03:00:00 8,1 3,6 - 0,0
13.06.2019 02:00:00 8,6 3,7 - 0,0
13.06.2019 01:00:00 8,8 4,5 - 0,0
13.06.2019 00:00:00 8,8 4,7 - 0,0
12.06.2019 23:00:00 9,8 4,9 - 0,0
12.06.2019 22:00:00 9,9 5,7 - 0,0
12.06.2019 21:00:00 10,2 6,0 - 0,0
12.06.2019 20:00:00 10,6 6,5 - 0,0
12.06.2019 19:00:00 10,9 6,8 - 0,0
12.06.2019 18:00:00 11,3 6,8 - 0,0
12.06.2019 17:00:00 11,9 7,3 - 0,0
12.06.2019 16:00:00 12,6 7,3 - 0,0
12.06.2019 15:00:00 13,5 7,0 - 0,0
12.06.2019 14:00:00 13,9 7,1 - 0,0
12.06.2019 13:00:00 12,9 6,5 - 0,0
12.06.2019 12:00:00 11,8 6,8 - 0,0
12.06.2019 11:00:00 11,7 5,4 - 0,0
12.06.2019 10:00:00 11,3 6,4 11,9 0,0
12.06.2019 09:00:00 9,8 6,2 - 0,0
12.06.2019 08:00:00 9,7 5,9 - 0,0
12.06.2019 07:00:00 9,8 5,9 - 0,0
12.06.2019 06:00:00 9,7 6,1 - 0,0
12.06.2019 05:00:00 9,9 6,5 - 0,0
12.06.2019 04:00:00 10,2 6,3 - 0,0
12.06.2019 03:00:00 10,3 6,4 - 0,0
12.06.2019 02:00:00 10,8 6,9 - 0,0
12.06.2019 01:00:00 11,4 7,2 - 0,0
12.06.2019 00:00:00 10,9 7,5 - 0,0
11.06.2019 23:00:00 11,3 6,1 - 0,0
11.06.2019 22:00:00 11,3 7,0 - 0,0
11.06.2019 21:00:00 11,5 7,6 - 0,0
11.06.2019 20:00:00 11,6 8,1 - 0,0
11.06.2019 19:00:00 12,2 8,5 - 0,0
11.06.2019 18:00:00 11,7 8,8 - 0,0
11.06.2019 17:00:00 11,7 9,0 - 0,0
11.06.2019 16:00:00 13,0 9,1 - 0,0
11.06.2019 15:00:00 12,6 7,5 - 0,0

tt = Température de l'air
td = dewpoint
tt -20cm = Température de l'air -20cm
rr = Quantités de précipitations

stations d'obs. à proximité